Flag for U.S.A. Weather past 2 weeks in Abilene, Texas, U.S.A.

Now
72 °F

Mild.


Feels Like: 75 °F
Forecast: 72 / 89 °F
Wind: N/A

Location: Abilene Regional Airport

Current Time: Jul 29, 2014 at 7:30:35 AM

Latest Report: Jul 29, 2014 at 6:52 AM


Visibility: 10 mi

Pressure: 30.08 "Hg

Humidity: 68%

Dew point: 61 °F

Location of AbileneLocation

Historic Weather in Abilene — Graph

°F

Abilene temperature yesterday

Maximum temperature yesterday: 97 °F (at 1:52 PM)
Minimum temperature yesterday: 77 °F (at 6:52 AM)
Average temperature yesterday: 86 °F

Past Weeks' High & Low Weather Summary

 TemperatureHumidityPressure
High100 °F (Jul 14, 4:52 PM)100% (Jul 17, 9:02 AM)30.16 "Hg (Jul 17, 9:02 AM)
Low65 °F (Jul 19, 3:52 AM)23% (Jul 14, 4:52 PM)29.78 "Hg (Jul 17, 3:52 AM)
Average82 °F60%29.95 "Hg
* Reported Jul 14 5:52 AM — Jul 29 5:52 AM, Abilene, Weather by CustomWeather, © 2014

Note: Actual official high and low records may vary slightly from our data, if they occured in-between our weather recording intervals... More about our weather records

Advertising

Abilene weather history for previous 24 hours

 ConditionsComfort  
Time TempWeatherWind HumidityBarometerVisibility
5:52 AM
Jul 29
74 °FMild.N/A62%30.08 "HgN/A
4:52 AM74 °FMild.N/A62%30.06 "HgN/A
3:52 AMN/AN/AN/A30.16 "HgN/A
1:52 AM77 °FClear.6 mph52%30.06 "Hg10 mi
12:52 AM78 °FClear.7 mph52%30.08 "Hg10 mi
11:52 PM
Jul 28
80 °FClear.9 mph56%30.09 "Hg10 mi
10:52 PM82 °FPassing clouds.8 mph55%30.08 "Hg10 mi
9:52 PM84 °FClear.6 mph46%30.06 "Hg10 mi
8:52 PM86 °FSunny.9 mph45%30.03 "Hg10 mi
7:52 PM88 °FSunny.15 mph43%30.03 "Hg10 mi
6:52 PM90 °FPassing clouds.16 mph42%30.03 "Hg10 mi
5:52 PM90 °FSunny.14 mph42%30.06 "Hg10 mi
4:52 PM90 °FMore clouds than sun.17 mph43%30.07 "Hg10 mi
3:52 PM91 °FPassing clouds.17 mph44%30.07 "Hg10 mi
2:52 PM90 °FPartly sunny.18 mph48%30.07 "Hg10 mi
1:52 PM97 °FPartly sunny.N/A33%30.06 "Hg10 mi
12:52 PM95 °FPassing clouds.9 mph36%30.09 "Hg10 mi
11:52 AM92 °FScattered clouds.7 mph41%30.11 "Hg10 mi
10:52 AM90 °FPassing clouds.9 mph47%30.11 "Hg10 mi
9:52 AM87 °FScattered clouds.8 mph55%30.09 "Hg10 mi
8:52 AM83 °FSunny.9 mph61%30.07 "Hg10 mi
7:52 AM78 °FSunny.6 mph66%30.05 "Hg9 mi
Weather by CustomWeather, © 2014

See weather overviewHow to use our weather pages